TimeEST,TemperatureF,Dew PointF,Humidity,Sea Level PressureIn,VisibilityMPH,Wind Direction,Wind SpeedMPH,Gust SpeedMPH,PrecipitationIn,Events,Conditions,WindDirDegrees,DateUTC
12:15 AM,23.5,18.3,80,30.04,10.0,South,5.8,-,N/A,,Overcast,170,2013-01-03 05:15:00
12:35 AM,23.5,18.5,81,30.03,10.0,South,5.8,-,N/A,,Overcast,170,2013-01-03 05:35:00
12:55 AM,23.5,18.7,82,30.03,10.0,SSE,6.9,-,N/A,,Overcast,150,2013-01-03 05:55:00
1:15 AM,23.2,19.0,84,30.02,7.0,SSE,6.9,-,N/A,Snow,Light Snow,150,2013-01-03 06:15:00
1:35 AM,23.0,19.4,86,30.01,10.0,SSE,5.8,-,N/A,,Overcast,160,2013-01-03 06:35:00
1:55 AM,23.0,19.4,86,30.00,10.0,SSE,8.1,-,N/A,,Overcast,160,2013-01-03 06:55:00
2:15 AM,23.0,19.4,86,29.99,7.0,SSE,6.9,-,N/A,,Overcast,150,2013-01-03 07:15:00
2:35 AM,23.0,19.9,88,29.98,10.0,SSE,8.1,-,N/A,,Overcast,160,2013-01-03 07:35:00
2:55 AM,23.0,20.1,89,29.98,7.0,South,8.1,-,N/A,Snow,Light Snow,170,2013-01-03 07:55:00
3:15 AM,23.0,20.1,89,29.97,10.0,South,9.2,-,N/A,,Overcast,180,2013-01-03 08:15:00
3:35 AM,23.2,20.1,88,29.96,10.0,South,9.2,-,N/A,,Overcast,180,2013-01-03 08:35:00
3:55 AM,23.2,20.1,88,29.96,10.0,South,5.8,-,N/A,,Overcast,180,2013-01-03 08:55:00
4:15 AM,23.4,20.3,88,29.95,10.0,South,8.1,-,N/A,,Overcast,170,2013-01-03 09:15:00
4:35 AM,23.4,20.3,88,29.93,10.0,SSE,8.1,-,N/A,,Overcast,160,2013-01-03 09:35:00
4:55 AM,23.4,20.3,88,29.93,10.0,South,5.8,-,N/A,,Overcast,170,2013-01-03 09:55:00
5:15 AM,23.7,21.0,89,29.92,10.0,South,5.8,-,N/A,,Overcast,170,2013-01-03 10:15:00
5:35 AM,23.9,21.2,89,29.92,10.0,South,4.6,-,N/A,,Overcast,180,2013-01-03 10:35:00
5:55 AM,23.9,21.2,89,29.91,10.0,South,5.8,-,N/A,,Overcast,190,2013-01-03 10:55:00
6:15 AM,24.8,21.7,88,29.92,10.0,SSW,5.8,-,N/A,,Overcast,200,2013-01-03 11:15:00
6:36 AM,25.5,22.1,87,29.92,7.0,SSW,6.9,-,N/A,,Overcast,210,2013-01-03 11:36:00
6:55 AM,25.7,22.3,87,29.91,5.0,SSW,5.8,-,N/A,Snow,Light Snow,210,2013-01-03 11:55:00
7:15 AM,25.7,22.8,89,29.91,7.0,Calm,Calm,-,N/A,,Overcast,0,2013-01-03 12:15:00
7:35 AM,26.1,23.0,88,29.92,7.0,WSW,3.5,-,N/A,,Overcast,240,2013-01-03 12:35:00
7:55 AM,26.2,23.0,88,29.92,7.0,West,4.6,-,N/A,,Overcast,270,2013-01-03 12:55:00
8:35 AM,26.2,23.7,90,29.91,7.0,WSW,3.5,-,N/A,,Overcast,250,2013-01-03 13:35:00
8:55 AM,26.4,23.9,90,29.91,5.0,West,4.6,-,N/A,,Overcast,270,2013-01-03 13:55:00
9:15 AM,26.6,24.3,91,29.92,5.0,West,4.6,-,N/A,,Overcast,260,2013-01-03 14:15:00
9:35 AM,26.4,24.1,91,29.93,5.0,West,8.1,-,N/A,,Overcast,280,2013-01-03 14:35:00
9:55 AM,26.4,23.0,87,29.93,7.0,West,9.2,-,N/A,,Overcast,270,2013-01-03 14:55:00
10:15 AM,26.4,22.5,85,29.94,3.0,West,10.4,-,N/A,Snow,Light Snow,280,2013-01-03 15:15:00
10:35 AM,26.4,22.5,85,29.94,2.5,West,9.2,-,N/A,Snow,Light Snow,270,2013-01-03 15:35:00
10:55 AM,26.4,22.5,85,29.94,7.0,West,5.8,-,N/A,,Overcast,270,2013-01-03 15:55:00
11:15 AM,26.6,21.9,82,29.93,7.0,WSW,9.2,-,N/A,,Overcast,250,2013-01-03 16:15:00
11:35 AM,26.6,22.1,83,29.93,7.0,West,8.1,-,N/A,,Overcast,260,2013-01-03 16:35:00
11:55 AM,27.0,22.1,82,29.93,7.0,WSW,12.7,17.3,N/A,,Overcast,250,2013-01-03 16:55:00
12:15 PM,27.1,21.9,81,29.92,10.0,West,10.4,-,N/A,,Overcast,260,2013-01-03 17:15:00
12:35 PM,27.3,22.1,81,29.92,10.0,West,10.4,16.1,N/A,,Overcast,260,2013-01-03 17:35:00
12:55 PM,27.3,23.0,84,29.92,7.0,West,13.8,18.4,N/A,Snow,Light Snow,270,2013-01-03 17:55:00
1:15 PM,27.5,23.5,85,29.92,5.0,WNW,15.0,19.6,N/A,Snow,Light Snow,290,2013-01-03 18:15:00
1:35 PM,27.5,22.8,83,29.93,7.0,WNW,16.1,20.7,N/A,Snow,Light Snow,300,2013-01-03 18:35:00
1:55 PM,27.3,22.3,81,29.93,7.0,WNW,17.3,-,N/A,Snow,Light Snow,290,2013-01-03 18:55:00
2:15 PM,27.0,21.2,79,29.93,10.0,WNW,11.5,19.6,N/A,,Overcast,300,2013-01-03 19:15:00
2:35 PM,26.6,20.3,77,29.93,10.0,WNW,13.8,-,N/A,,Overcast,290,2013-01-03 19:35:00
2:55 PM,26.6,21.2,80,29.93,10.0,West,16.1,21.9,N/A,,Overcast,280,2013-01-03 19:55:00
3:15 PM,26.6,21.2,80,29.94,10.0,West,13.8,18.4,N/A,,Overcast,280,2013-01-03 20:15:00
3:35 PM,26.4,19.9,77,29.95,10.0,WNW,12.7,25.3,N/A,,Overcast,290,2013-01-03 20:35:00
3:55 PM,26.2,19.0,74,29.95,10.0,WNW,13.8,20.7,N/A,,Overcast,290,2013-01-03 20:55:00
4:15 PM,25.9,17.6,71,29.96,10.0,West,12.7,-,N/A,,Overcast,280,2013-01-03 21:15:00
4:35 PM,25.7,17.4,71,29.97,10.0,West,15.0,-,N/A,,Overcast,280,2013-01-03 21:35:00
4:55 PM,25.3,17.6,72,29.98,10.0,WNW,12.7,-,N/A,,Overcast,290,2013-01-03 21:55:00
5:15 PM,25.2,17.6,73,29.98,10.0,West,12.7,-,N/A,,Overcast,280,2013-01-03 22:15:00
5:35 PM,24.8,17.6,74,29.99,10.0,WNW,12.7,20.7,N/A,,Overcast,290,2013-01-03 22:35:00
5:55 PM,24.3,16.2,71,29.99,10.0,West,13.8,18.4,N/A,,Mostly Cloudy,280,2013-01-03 22:55:00
6:15 PM,24.4,16.7,72,29.99,10.0,WNW,10.4,-,N/A,,Overcast,290,2013-01-03 23:15:00
6:35 PM,23.5,16.0,73,29.99,10.0,West,8.1,-,N/A,,Mostly Cloudy,280,2013-01-03 23:35:00
7:14 PM,21.9,15.4,76,30.00,10.0,West,4.6,-,N/A,,Scattered Clouds,260,2013-01-04 00:14:00
7:35 PM,22.6,15.8,75,29.98,10.0,WSW,4.6,-,N/A,,Mostly Cloudy,240,2013-01-04 00:35:00
7:55 PM,21.2,15.4,78,29.98,10.0,SSW,3.5,-,N/A,,Mostly Cloudy,210,2013-01-04 00:55:00
8:15 PM,20.1,15.6,83,29.98,10.0,SSW,3.5,-,N/A,,Mostly Cloudy,200,2013-01-04 01:15:00
8:35 PM,21.2,16.5,82,29.98,10.0,Calm,Calm,-,N/A,,Overcast,0,2013-01-04 01:35:00
8:55 PM,21.2,16.7,83,29.96,10.0,SSW,4.6,-,N/A,,Overcast,200,2013-01-04 01:55:00
9:15 PM,21.4,16.5,82,29.94,10.0,South,3.5,-,N/A,,Mostly Cloudy,190,2013-01-04 02:15:00
9:35 PM,20.8,16.7,84,29.94,10.0,Calm,Calm,-,N/A,,Mostly Cloudy,0,2013-01-04 02:35:00
9:55 PM,22.3,18.3,85,29.92,10.0,SSW,3.5,-,N/A,,Overcast,210,2013-01-04 02:55:00
10:15 PM,25.9,20.5,80,29.90,10.0,WSW,9.2,-,N/A,,Overcast,240,2013-01-04 03:15:00
10:35 PM,28.2,21.2,75,29.91,10.0,WSW,12.7,20.7,N/A,,Overcast,240,2013-01-04 03:35:00
10:55 PM,28.6,21.6,75,29.90,10.0,WSW,17.3,25.3,N/A,,Overcast,240,2013-01-04 03:55:00
11:15 PM,28.9,22.1,76,29.89,10.0,WSW,15.0,24.2,N/A,,Overcast,240,2013-01-04 04:15:00
11:35 PM,28.9,22.3,76,29.88,7.0,WSW,18.4,24.2,N/A,,Overcast,240,2013-01-04 04:35:00
11:55 PM,28.8,22.6,78,29.87,5.0,WSW,18.4,26.5,N/A,,Haze,240,2013-01-04 04:55:00